Skip Page Navigation
NASA JPL Caltech
NASA Logo - Jet Propulsion Laboratory + View the NASA Portal
+ Near-Earth Object (NEO) Program
Search JPL
JPL Home Earth Solar System Stars & Galaxies Technology
JPL Solar System Dynamics
BODIES ORBITS EPHEMERIDES TOOLS PHYSICAL DATA DISCOVERY FAQ SITE MAP
JPL Small-Body Database Browser
Search: [ help ]  
117874 Picodelteide (2511 P-L)
Classification: Inner Main-belt Asteroid          SPK-ID: 2117874
Ephemeris | Orbit Diagram | Orbital Elements | Physical Parameters | Discovery Circumstances ]

[ show orbit diagram ]
Orbital Elements at Epoch 2456800.5 (2014-May-23.0) TDB
Reference: JPL 3 (heliocentric ecliptic J2000)
 Element Value Uncertainty (1-sigma)   Units 
e .1077027721827647 8.2751e-08  
a 1.949572958412738 1.1548e-08 AU
q 1.739598546219132 1.5858e-07 AU
i 20.77398503062817 9.0682e-06 deg
node 13.30041762464678 2.1476e-05 deg
peri 55.01575721068166 5.3236e-05 deg
M 206.3207583770746 4.3432e-05 deg
tp 2457224.943975159351
(2015-Jul-21.44397516)
0.00011922 JED
period 994.2776229484748
2.72
8.8343e-06
2.419e-08
d
yr
n .362071912000232 3.2171e-09 deg/d
Q 2.159547370606344 1.2792e-08 AU
  Orbit Determination Parameters
   # obs. used (total)      355  
   data-arc span      19156 days (52.45 yr)  
   first obs. used      1960-09-26  
   last obs. used      2013-03-08  
   planetary ephem.      DE431  
   SB-pert. ephem.      SB431-BIG16  
   condition code      0  
   fit RMS      .50898  
   data source      ORB  
   producer      Otto Matic  
   solution date      2014-Jun-11 00:14:35  

Additional Information
 Earth MOID = .792277 AU 
 T_jup = 3.807 
[ show covariance matrix ]

Ephemeris | Orbit Diagram | Orbital Elements | Physical Parameters | Discovery Circumstances ]

Physical Parameter Table
Parameter Symbol Value Units Sigma Reference Notes
absolute magnitude H 15.8 mag n/a MPO257548  

117874 Picodelteide           Discovered 1960 Sept. 26 by C. J. van Houten and I. van Houten-Groeneveld on Palomar Schmidt plates taken by T. Gehrels.
The Hungaria minor planet is named after the 3718-m active volcano Pico del Teide on Tenerife, one of the Spanish Canary Islands.
NOTE: some special characters may not display properly (any characters within {} are an attempt to place the proper accent above a character)
Reference: 20130127/MPCPages.arcLast Updated: 2013-01-31

Alternate Designations
 2511 P-L = 2001 QJ76 
Ephemeris | Orbit Diagram | Orbital Elements | Physical Parameters | Discovery Circumstances ]
ABOUT SSD CREDITS/AWARDS PRIVACY/COPYRIGHT GLOSSARY LINKS
FirstGov 2014-Jul-24 21:40 UT
(server date/time)  
NASA Home Page
Site Manager:   Donald K. Yeomans
Webmaster  Alan B. Chamberlin